| time (UTC) | temp C | wind direction | speed KPH | gust KPH | rain 1hr cm | rain 24hr cm | rain mn cm | humidity % | barometer mb |
| 20260505212018 | 17 | 240 | 0.0 | 4.8 | 0.05 | 1.40 | 1.40 | 99 | 1008.6 |
| 20260505211024 | 17 | 220 | 3.2 | 4.8 | 0.05 | 1.40 | 1.40 | 99 | 1008.5 |
| 20260505210028 | 17 | 254 | 0.0 | 4.8 | 0.05 | 1.40 | 1.40 | 99 | 1008.3 |
| 20260505205016 | 17 | 219 | 1.6 | 4.8 | 0.05 | 1.40 | 1.40 | 99 | 1008.5 |
| 20260505204022 | 17 | 226 | 1.6 | 4.8 | 0.03 | 1.37 | 1.37 | 99 | 1008.5 |
| 20260505203026 | 17 | 217 | 1.6 | 6.4 | 0.03 | 1.37 | 1.37 | 99 | 1008.5 |
| 20260505202031 | 17 | 213 | 1.6 | 6.4 | 0.03 | 1.35 | 1.35 | 99 | 1008.5 |
| 20260505201040 | 17 | 206 | 4.8 | 11.3 | 0.03 | 1.35 | 1.35 | 99 | 1008.6 |
| 20260505200024 | 17 | 210 | 3.2 | 11.3 | 0.03 | 1.35 | 1.35 | 99 | 1008.8 |
| 20260505195029 | 17 | 204 | 3.2 | 11.3 | 0.03 | 1.35 | 1.35 | 99 | 1008.6 |
| 20260505194017 | 17 | 183 | 1.6 | 4.8 | 0.03 | 1.35 | 1.35 | 99 | 1008.7 |
| 20260505193043 | 16 | 195 | 1.6 | 9.7 | 0.03 | 1.35 | 1.35 | 99 | 1009.0 |
| 20260505192027 | 16 | 207 | 3.2 | 9.7 | 0.00 | 1.32 | 1.32 | 99 | 1009.2 |
| 20260505191032 | 16 | 213 | 3.2 | 9.7 | 0.00 | 1.32 | 1.32 | 99 | 1009.3 |
| 20260505190020 | 16 | 208 | 1.6 | 6.4 | 0.00 | 1.32 | 1.32 | 99 | 1009.1 |
| 20260505185025 | 16 | 191 | 3.2 | 6.4 | 0.00 | 1.32 | 1.32 | 99 | 1009.0 |
| 20260505184030 | 16 | 102 | 1.6 | 6.4 | 0.00 | 1.32 | 1.32 | 99 | 1009.1 |
| 20260505183039 | 16 | 142 | 1.6 | 6.4 | 0.00 | 1.32 | 1.32 | 99 | 1009.3 |
| 20260505182023 | 16 | 195 | 3.2 | 9.7 | 0.00 | 1.32 | 1.32 | 99 | 1009.4 |
| 20260505181027 | 16 | 79 | 1.6 | 4.8 | 0.00 | 1.32 | 1.32 | 99 | 1009.5 |
| 20260505180033 | 16 | 191 | 3.2 | 6.4 | 0.03 | 1.32 | 1.32 | 99 | 1009.6 |
| 20260505175021 | 16 | 220 | 3.2 | 11.3 | 0.05 | 1.32 | 1.32 | 99 | 1009.8 |
| 20260505174046 | 16 | 84 | 1.6 | 6.4 | 0.23 | 1.32 | 1.32 | 99 | 1010.1 |
| 20260505173112 | 16 | 119 | 0.0 | 3.2 | 0.25 | 1.32 | 1.32 | 99 | 1010.1 |
| 20260505172039 | 16 | 277 | 0.0 | 1.6 | 0.25 | 1.32 | 1.32 | 99 | 1010.3 |
| 20260505171024 | 15 | 86 | 0.0 | 1.6 | 0.25 | 1.32 | 1.32 | 99 | 1010.3 |
| 20260505170029 | 15 | 153 | 0.0 | 3.2 | 0.25 | 1.30 | 1.30 | 99 | 1010.4 |
| 20260505165016 | 15 | 204 | 1.6 | 9.7 | 0.23 | 1.27 | 1.27 | 99 | 1010.7 |
| 20260505164022 | 15 | 180 | 4.8 | 9.7 | 0.08 | 1.09 | 1.09 | 99 | 1010.7 |
| 20260505163027 | 16 | 103 | 1.6 | 6.4 | 0.08 | 1.07 | 1.07 | 99 | 1010.5 |
| 20260505162053 | 15 | 109 | 1.6 | 4.8 | 0.08 | 1.07 | 1.07 | 99 | 1010.5 |
| 20260505161020 | 15 | 184 | 1.6 | 3.2 | 0.10 | 1.07 | 1.07 | 99 | 1010.5 |
| 20260505153022 | 15 | 126 | 1.6 | 6.4 | 0.03 | 0.99 | 0.99 | 99 | 1010.6 |
| 20260505152028 | 15 | 89 | 0.0 | 6.4 | 0.05 | 0.99 | 0.99 | 99 | 1010.4 |
| 20260505151032 | 15 | 0.0 | 0.0 | 0.03 | 0.97 | 0.97 | 99 | 1010.6 | |
| 20260505125018 | 18 | 182 | 3.2 | 6.4 | 0.00 | 0.00 | 0.00 | 75 | 1009.9 |
| 20260505124022 | 17 | 198 | 4.8 | 12.9 | 0.00 | 0.00 | 0.00 | 75 | 1009.8 |
| 20260505123027 | 17 | 200 | 3.2 | 9.7 | 0.00 | 0.00 | 0.00 | 75 | 1009.7 |
| 20260505122032 | 17 | 207 | 3.2 | 4.8 | 0.00 | 0.00 | 0.00 | 75 | 1009.5 |
| 20260505121020 | 17 | 319 | 1.6 | 3.2 | 0.00 | 0.00 | 0.00 | 76 | 1009.4 |
| 20260505120025 | 17 | 123 | 1.6 | 11.3 | 0.00 | 0.00 | 0.00 | 75 | 1009.2 |
| 20260505115050 | 17 | 178 | 3.2 | 9.7 | 0.00 | 0.00 | 0.00 | 75 | 1009.3 |
| 20260505114017 | 17 | 157 | 3.2 | 4.8 | 0.00 | 0.00 | 0.00 | 75 | 1009.1 |
| 20260505113023 | 17 | 218 | 0.0 | 3.2 | 0.00 | 0.00 | 0.00 | 76 | 1009.0 |
| 20260505112028 | 16 | 159 | 1.6 | 6.4 | 0.00 | 0.00 | 0.00 | 75 | 1009.0 |
| 20260505111033 | 16 | 103 | 1.6 | 4.8 | 0.00 | 0.00 | 0.00 | 75 | 1008.8 |
| 20260505102043 | 16 | 100 | 1.6 | 3.2 | 0.00 | 0.00 | 0.00 | 76 | 1009.1 |
| 20260505101028 | 16 | 243 | 0.0 | 1.6 | 0.00 | 0.00 | 0.00 | 76 | 1009.2 |
| 20260505100033 | 16 | 96 | 0.0 | 3.2 | 0.00 | 0.00 | 0.00 | 75 | 1009.2 |
| 20260505095021 | 16 | 83 | 0.0 | 1.6 | 0.00 | 0.00 | 0.00 | 74 | 1009.4 |
| 20260505094026 | 17 | 200 | 1.6 | 4.8 | 0.00 | 0.00 | 0.00 | 72 | 1009.6 |
| 20260505093052 | 17 | 207 | 1.6 | 4.8 | 0.00 | 0.00 | 0.00 | 71 | 1009.5 |
| 20260505092036 | 17 | 209 | 1.6 | 4.8 | 0.00 | 0.00 | 0.00 | 72 | 1009.5 |
| 20260505091024 | 17 | 181 | 1.6 | 6.4 | 0.00 | 0.00 | 0.00 | 72 | 1009.4 |
| 20260505090029 | 17 | 201 | 3.2 | 6.4 | 0.00 | 0.00 | 0.00 | 71 | 1009.6 |
| 20260505085017 | 17 | 213 | 0.0 | 4.8 | 0.00 | 0.00 | 0.00 | 72 | 1009.6 |
| 20260505084022 | 17 | 200 | 1.6 | 3.2 | 0.00 | 0.00 | 0.00 | 72 | 1009.8 |
| 20260505083048 | 17 | 295 | 0.0 | 3.2 | 0.00 | 0.00 | 0.00 | 72 | 1009.4 |
| 20260505082031 | 17 | 202 | 1.6 | 4.8 | 0.00 | 0.00 | 0.00 | 71 | 1009.4 |
| 20260505081020 | 17 | 210 | 3.2 | 4.8 | 0.00 | 0.00 | 0.00 | 69 | 1009.6 |
| 20260505080025 | 17 | 195 | 3.2 | 4.8 | 0.00 | 0.00 | 0.00 | 70 | 1009.5 |
| 20260505075030 | 17 | 199 | 3.2 | 4.8 | 0.00 | 0.00 | 0.00 | 69 | 1009.6 |
| 20260505074038 | 17 | 207 | 1.6 | 6.4 | 0.00 | 0.00 | 0.00 | 69 | 1009.4 |
| 20260505073022 | 18 | 199 | 1.6 | 6.4 | 0.00 | 0.00 | 0.00 | 68 | 1009.1 |
| 20260505072109 | 18 | 191 | 3.2 | 6.4 | 0.00 | 0.00 | 0.00 | 68 | 1008.9 |
| 20260505071033 | 18 | 192 | 1.6 | 4.8 | 0.00 | 0.00 | 0.00 | 67 | 1008.9 |
| 20260505070021 | 18 | 211 | 3.2 | 9.7 | 0.00 | 0.00 | 0.00 | 66 | 1009.2 |
| 20260505065025 | 18 | 208 | 4.8 | 14.5 | 0.00 | 0.00 | 0.00 | 65 | 1009.3 |
| 20260505064030 | 18 | 198 | 4.8 | 11.3 | 0.00 | 0.00 | 0.00 | 66 | 1009.4 |
| 20260505063019 | 18 | 216 | 3.2 | 6.4 | 0.00 | 0.00 | 0.00 | 65 | 1009.3 |
| 20260505062023 | 18 | 209 | 4.8 | 11.3 | 0.00 | 0.00 | 0.00 | 64 | 1009.3 |
| 20260505061028 | 18 | 177 | 4.8 | 11.3 | 0.00 | 0.00 | 0.00 | 64 | 1008.9 |
| 20260505060037 | 18 | 209 | 4.8 | 11.3 | 0.00 | 0.00 | 0.00 | 64 | 1009.1 |
| 20260505055021 | 18 | 196 | 4.8 | 12.9 | 0.00 | 0.00 | 0.00 | 63 | 1009.4 |
| 20260505054027 | 19 | 201 | 4.8 | 9.7 | 0.00 | 0.00 | 0.00 | 63 | 1009.7 |
| 20260505053052 | 19 | 187 | 3.2 | 11.3 | 0.00 | 0.00 | 0.00 | 63 | 1009.7 |
| 20260505052020 | 19 | 202 | 4.8 | 9.7 | 0.00 | 0.00 | 0.00 | 63 | 1009.7 |
| 20260505051024 | 19 | 185 | 4.8 | 9.7 | 0.00 | 0.00 | 0.00 | 63 | 1009.9 |
| 20260505041020 | 21 | 203 | 9.7 | 14.5 | 0.00 | 0.00 | 0.00 | 58 | 1009.6 |
| 20260505040025 | 21 | 196 | 6.4 | 16.1 | 0.00 | 0.00 | 0.00 | 58 | 1009.9 |
| 20260505035030 | 21 | 201 | 6.4 | 11.3 | 0.00 | 0.00 | 0.00 | 57 | 1009.9 |
| 20260505034059 | 21 | 205 | 3.2 | 9.7 | 0.00 | 0.00 | 0.00 | 58 | 1009.9 |
| 20260505033023 | 20 | 193 | 6.4 | 11.3 | 0.00 | 0.00 | 0.00 | 57 | 1010.1 |
| 20260505032028 | 20 | 203 | 3.2 | 6.4 | 0.00 | 0.00 | 0.00 | 58 | 1010.0 |
| 20260505031053 | 21 | 215 | 3.2 | 6.4 | 0.00 | 0.00 | 0.00 | 57 | 1009.8 |
| 20260505030021 | 21 | 219 | 3.2 | 6.4 | 0.00 | 0.00 | 0.00 | 57 | 1009.8 |
| 20260505025026 | 21 | 209 | 3.2 | 6.4 | 0.00 | 0.00 | 0.00 | 57 | 1009.6 |
| 20260505024031 | 21 | 224 | 3.2 | 6.4 | 0.00 | 0.00 | 0.00 | 55 | 1009.6 |
| 20260505023039 | 21 | 216 | 3.2 | 9.7 | 0.00 | 0.00 | 0.00 | 55 | 1009.5 |
| 20260505022023 | 21 | 234 | 3.2 | 6.4 | 0.00 | 0.00 | 0.00 | 54 | 1009.2 |
| 20260505021028 | 22 | 207 | 4.8 | 9.7 | 0.00 | 0.00 | 0.00 | 53 | 1009.2 |
| 20260505020016 | 22 | 205 | 4.8 | 11.3 | 0.00 | 0.00 | 0.00 | 53 | 1008.9 |
| 20260505015022 | 22 | 197 | 4.8 | 9.7 | 0.00 | 0.00 | 0.00 | 52 | 1008.6 |
| 20260505014027 | 22 | 198 | 4.8 | 12.9 | 0.00 | 0.00 | 0.00 | 51 | 1008.5 |
| 20260505013031 | 22 | 200 | 4.8 | 11.3 | 0.00 | 0.00 | 0.00 | 51 | 1008.7 |
| 20260505012100 | 22 | 187 | 4.8 | 11.3 | 0.00 | 0.00 | 0.00 | 50 | 1008.5 |
| 20260505011045 | 22 | 232 | 4.8 | 9.7 | 0.00 | 0.00 | 0.00 | 50 | 1008.4 |
| 20260505010049 | 23 | 198 | 6.4 | 12.9 | 0.00 | 0.00 | 0.00 | 49 | 1008.2 |
| 20260505005017 | 23 | 197 | 4.8 | 9.7 | 0.00 | 0.00 | 0.00 | 49 | 1008.0 |
| 20260505004043 | 23 | 190 | 4.8 | 6.4 | 0.00 | 0.00 | 0.00 | 48 | 1008.3 |
| 20260505003027 | 23 | 204 | 4.8 | 12.9 | 0.00 | 0.00 | 0.00 | 47 | 1008.3 |
| 20260505002033 | 24 | 201 | 8.0 | 17.7 | 0.00 | 0.00 | 0.00 | 46 | 1008.4 |
| 20260505001020 | 24 | 201 | 6.4 | 14.5 | 0.00 | 0.00 | 0.00 | 46 | 1008.5 |
| 20260505000025 | 25 | 221 | 8.0 | 16.1 | 0.00 | 0.00 | 0.00 | 45 | 1008.4 |
| 20260504235050 | 25 | 203 | 8.0 | 24.1 | 0.00 | 0.00 | 0.00 | 45 | 1008.4 |
| 20260504234018 | 25 | 201 | 8.0 | 22.5 | 0.00 | 0.00 | 0.00 | 45 | 1008.6 |
| 20260504233023 | 25 | 204 | 8.0 | 24.1 | 0.00 | 0.00 | 0.00 | 45 | 1008.8 |
| 20260504232028 | 25 | 221 | 11.3 | 30.6 | 0.00 | 0.00 | 0.00 | 45 | 1008.9 |
| 20260504231016 | 25 | 214 | 8.0 | 17.7 | 0.00 | 0.00 | 0.00 | 44 | 1009.0 |
| 20260504230021 | 26 | 212 | 8.0 | 17.7 | 0.00 | 0.00 | 0.00 | 43 | 1009.1 |
| 20260504225026 | 26 | 205 | 8.0 | 22.5 | 0.00 | 0.00 | 0.00 | 43 | 1009.0 |
| 20260504224030 | 26 | 199 | 6.4 | 12.9 | 0.00 | 0.00 | 0.00 | 43 | 1009.2 |
| 20260504223018 | 27 | 212 | 8.0 | 16.1 | 0.00 | 0.00 | 0.00 | 41 | 1009.2 |
| 20260504222024 | 26 | 239 | 11.3 | 27.4 | 0.00 | 0.00 | 0.00 | 40 | 1009.3 |
| 20260504221029 | 26 | 195 | 8.0 | 16.1 | 0.00 | 0.00 | 0.00 | 41 | 1009.3 |
| 20260504220017 | 26 | 220 | 6.4 | 14.5 | 0.00 | 0.00 | 0.00 | 42 | 1009.4 |
| 20260504215021 | 26 | 200 | 8.0 | 20.9 | 0.00 | 0.00 | 0.00 | 41 | 1009.6 |
| 20260504214027 | 27 | 241 | 8.0 | 24.1 | 0.00 | 0.00 | 0.00 | 42 | 1009.3 |
| 20260504213032 | 27 | 225 | 6.4 | 17.7 | 0.00 | 0.00 | 0.00 | 42 | 1009.4 |